THOR ABLESTAR DEB, 150

Orbit data source: Space-Track

THOR ABLESTAR DEB, 150 is space debris in LEO originally from a launch on Thu, 29 Jun 1961 UTC launched from the Air Force Eastern Test Range (AFETR). Debris objects in space refer to the collection of defunct objects orbiting the Earth. Examples of debris include non-operational satellites, rocket bodies, and fragments generated from explosions, collisions, or faulty payload assembly.

Loading next visibility...
Identifier
150, 1961-015AL
Orbit
LEO
Last TLE update
17 hours ago
Origin
Manufacturer
Unknown
Mission
Spacecraft
Bus & Motor
Unknown
Mass
Unknown
Launch date (UTC)
1961-06-29 (64 years ago)
Launch vehicle
Unknown
Launch site
Air Force Eastern Test Range (AFETR)
Object type
Payload
Rocket body
Debris
Shape & HBR
Unknown
Radar Cross Section
Medium (>0.1 m² and <1 m²)

Expand to show TLE details & history

TLE from 17 hours ago
0 THOR ABLESTAR DEB
1   150U 61015AL  25128.50766189  .00000480  00000-0  50202-3 0  9993
2   150  66.2467 181.1591 0051722 136.7798 223.7349 13.83415204 52977
Epoch: 2025-05-08T12:11Z
Definitive object data (Epoch: 2025-05-08T12:11:01.987Z)
Latitude
-0.00004°
Longitude
131.82364°
Altitude
981.314 km
Speed
7.348 km/s
True Right ascension
12h 04m 38s
True Declination
0° 00' 00"
Sunlit
Object was in full shadow at TLE epoch
Visualization TLE readout
Latitude
13.9862°
Longitude
136.29432°
Altitude
972.492 km
Speed
7.357 km/s
Apparent Right ascension
10h 05m 59s
Apparent Declination
-36° 47' 28"
Sunlit
Object is in full shadow
Visualization observer readout
Local Sidereal Time
13:45:11
Azimuth
220.896° SW
Elevation
-1.732°
Doppler factor
1
Orbital elements
Apogee altitude
988.165 km
Perigee altitude
912.357 km
Semi-major axis
7,328.398 km
Eccentricity
0.0051722
Inclination
66.2467°
RAAN
181.1591°
Arg. of periapsis
136.7798°
True anomaly
223.32707°
Mean anomaly
223.7349°
Eccentric anomaly
223.53079°
Mean motion
3.45963 °/min
BSTAR
0.00050202
Orbital period
104.06 mins
Loading maneuver chart data...
Loading SW <> Apogee altitude chart data...

THOR ABLESTAR DEB Visibility forecast

Observer location: undefined°, undefined°

Span
Click to sort rows by Start time (UTC) header in descending order
Start Az.
Max El. time (UTC)
Max El. Az.
Max El.
End time (UTC)
End Az.
11 mins2025-05-09 05:40:29.243Z228.104° WSW2025-05-09 05:45:29.243Z290.36° WNW39.327°2025-05-09 05:51:29.243Z21.139° NNE
8 mins2025-05-09 13:01:29.243Z358.655° N2025-05-09 13:05:29.243Z53.81° ENE25.821°2025-05-09 13:09:29.243Z102.387° ESE
9 mins2025-05-09 14:48:29.243Z312.926° NW2025-05-09 14:52:29.243Z245.688° WSW37.178°2025-05-09 14:57:29.243Z175.895° S
10 mins2025-05-10 04:12:29.243Z176.344° S2025-05-10 04:17:29.243Z104.851° ESE34.011°2025-05-10 04:22:29.243Z44.885° NE
|